Mattoon, IL

2:03 PM CST on November 20, 2019 (GMT -0600)
Coles County Memorial

Weather History for KMTO - September, 2019

Change the Weather History Date:

Friday, September 13, 2019

  Actual Average Record
Temperature  
Mean Temperature 72 °F 68 °F  
Max Temperature 85 °F 80 °F 94 °F (1956)
Min Temperature 58 °F 56 °F 40 °F (1964)
Degree Days  
Heating Degree Days 0 1  
Month to date heating degree days 0 7  
Since 1 July heating degree days 0 12  
Cooling Degree Days 7 4  
Month to date cooling degree days 95 73  
Year to date cooling degree days 1080 993  
Growing Degree Days 22 (Base 50)    
Moisture  
Dew Point 64 °F    
Average Humidity 65    
Maximum Humidity 90    
Minimum Humidity 40    
Precipitation  
Precipitation 0.00 in 0.10 in 0.89 in (1970)
Month to date precipitation 0.47 1.44  
Year to date precipitation 25.60 27.34  
Sea Level Pressure  
Sea Level Pressure 30.09 in    
Wind  
Wind Speed 8 mph (WSW)    
Max Wind Speed 15 mph    
Max Gust Speed 25 mph    
Visibility 10 miles    
Events      
T = Trace of Precipitation, MM = Missing Value Source: NWS Daily Summary

Daily Weather History Graph

Daily Weather History Graph

Search for Another Location

Airport or City:

Astronomy

Sep. 13, 2019 Rise Set
Actual Time 6:32 AM CDT 7:05 PM CDT
Civil Twilight 6:05 AM CDT 7:32 PM CDT
Nautical Twilight 5:33 AM CDT 8:03 PM CDT
Astronomical Twilight 5:00 AM CDT 8:36 PM CDT
Moon 7:18 PM CDT (9/13) 5:49 AM CDT (9/13)
Length of Visible Light 13h 26m
Length of Day
12h 32m
Full, 100% of the Moon is Illuminated
Sep 13
Full
Sep 13
Full
Sep 21
Last Quarter
Sep 28
New
Oct 5
First Quarter

Hourly Weather History & Observations

Time (CDT) Temp. Heat Index Dew Point Humidity Pressure Visibility Wind Dir Wind Speed Gust Speed Precip Events Conditions
12:53 AM 75.9 °F - 69.1 °F 79% 30.05 in 10.0 mi South 5.8 mph - N/A   Scattered Clouds
1:53 AM 75.0 °F - 68.0 °F 79% 30.04 in 10.0 mi South 8.1 mph - N/A   Clear
2:53 AM 75.0 °F - 68.0 °F 79% 30.03 in 10.0 mi South 6.9 mph - N/A   Clear
3:53 AM 73.9 °F - 68.0 °F 82% 30.02 in 10.0 mi South 6.9 mph - N/A   Clear
4:53 AM 73.9 °F - 68.0 °F 82% 30.01 in 10.0 mi South 8.1 mph - N/A   Mostly Cloudy
5:53 AM 73.9 °F - 68.0 °F 82% 30.04 in 10.0 mi SSW 6.9 mph - N/A   Mostly Cloudy
6:53 AM 73.0 °F - 68.0 °F 84% 30.05 in 10.0 mi SSW 6.9 mph - N/A   Partly Cloudy
7:53 AM 75.0 °F - 69.1 °F 82% 30.06 in 10.0 mi SSW 6.9 mph - N/A   Overcast
8:53 AM 77.0 °F - 70.0 °F 79% 30.08 in 10.0 mi WSW 9.2 mph - N/A   Partly Cloudy
9:53 AM 79.0 °F - 71.1 °F 77% 30.08 in 10.0 mi WSW 8.1 mph - N/A   Scattered Clouds
10:21 AM 80.1 °F 83.6 °F 71.1 °F 74% 30.11 in 10.0 mi West 10.4 mph 18.4 mph N/A   Mostly Cloudy
10:38 AM 79.0 °F - 71.1 °F 77% 30.11 in 10.0 mi WSW 9.2 mph - N/A   Overcast
10:53 AM 78.1 °F - 70.0 °F 76% 30.09 in 10.0 mi WSW 6.9 mph 18.4 mph N/A   Overcast
11:53 AM 81.0 °F 83.0 °F 66.0 °F 60% 30.10 in 10.0 mi SW 12.7 mph 19.6 mph N/A   Scattered Clouds
12:53 PM 84.0 °F 84.4 °F 61.0 °F 46% 30.10 in 10.0 mi WSW 8.1 mph 19.6 mph N/A   Partly Cloudy
1:53 PM 82.0 °F 82.1 °F 59.0 °F 45% 30.09 in 10.0 mi WSW 10.4 mph 21.9 mph N/A   Partly Cloudy
2:53 PM 82.0 °F 83.4 °F 64.0 °F 54% 30.09 in 10.0 mi SW 10.4 mph 24.2 mph N/A   Clear
3:53 PM 82.9 °F 82.6 °F 57.9 °F 42% 30.09 in 10.0 mi WSW 11.5 mph 21.9 mph N/A   Clear
4:53 PM 82.0 °F 81.6 °F 55.9 °F 41% 30.10 in 10.0 mi West 13.8 mph 21.9 mph N/A   Clear
5:53 PM 79.0 °F - 57.9 °F 48% 30.10 in 10.0 mi West 13.8 mph 18.4 mph N/A   Clear
6:53 PM 72.0 °F - 55.9 °F 57% 30.12 in 10.0 mi WNW 6.9 mph - N/A   Clear
7:53 PM 66.9 °F - 57.0 °F 70% 30.13 in 10.0 mi West 5.8 mph - N/A   Clear
8:53 PM 64.0 °F - 57.0 °F 78% 30.15 in 10.0 mi WNW 5.8 mph - N/A   Clear
9:53 PM 61.0 °F - 57.0 °F 87% 30.17 in 10.0 mi WNW 4.6 mph - N/A   Clear
10:53 PM 61.0 °F - 57.0 °F 87% 30.18 in 10.0 mi WNW 5.8 mph - N/A   Clear
11:53 PM 60.1 °F - 55.9 °F 86% 30.18 in 10.0 mi West 5.8 mph - N/A   Clear